[[{"header":{"parameterUnit":"m.s-1","parameterCategory":1,"la1":30.2991,"la2":30.254,"lo1":-89.0895,"lo2":-89.0444,"dx":0.0017,"dy":0.0017,"nx":28,"ny":28,"refTime":"2023-01-17T09:00:00:Z","depth":0,"parameterNumber":2,"parameterNumberName":"U-component_of_WINDS"},"data":[0,0,0,0,0,0,0,0,0,0,0,0,0,0,0,0,0,0,0,0,0,0,0,0,0,0,0,0,0,0,0,0,0,0,0,0,0,0,0,0,0,0,0,0,0,0,0,0,0,0,0,0,0,0,0,0,0,0,-2.2701,-2.2701,0,-2.276,-2.276,-2.2761,-2.2756,-2.2755,-2.2754,-2.2753,-2.2817,-2.282,-2.2822,0,0,0,0,0,0,0,0,0,0,0,0,0,-2.2587,-2.2589,-2.27,-2.2701,-2.2702,-2.2759,-2.276,-2.2761,-2.2756,-2.2755,-2.2754,-2.2753,-2.2816,-2.2819,-2.2822,0,0,0,0,0,0,0,0,0,0,0,0,0,-2.264,-2.259,-2.27,-2.2706,-2.2707,-2.2759,-2.276,-2.2761,-2.2756,-2.2755,-2.2754,-2.2752,-2.2815,-2.2819,-2.2823,-2.2873,0,0,-2.2834,-2.2836,0,0,0,0,0,0,0,0,-2.2637,-2.2644,-2.2705,-2.2706,-2.2707,-2.2749,-2.2744,-2.2799,-2.2757,-2.2738,-2.2753,-2.2752,-2.2796,-2.2801,-2.2815,-2.2876,-2.2879,-2.2835,-2.2837,-2.2839,-2.284,0,0,0,0,0,0,0,-2.2633,-2.2642,-2.2724,-2.2706,-2.2707,-2.2707,-2.2713,-2.2754,-2.2774,-2.2739,-2.2739,-2.2746,-2.2796,-2.2812,-2.2817,-2.288,-2.2835,-2.2838,-2.284,-2.2842,-2.2986,-2.2987,0,0,0,0,0,0,-2.2628,-2.2639,-2.2722,-2.2726,-2.2668,-2.271,-2.2717,-2.2737,-2.2773,-2.2777,-2.2747,-2.2746,-2.2806,-2.2812,-2.2819,-2.288,-2.2839,-2.2842,-2.2844,-2.2984,-2.2986,-2.2987,0,0,0,0,0,0,-2.2625,-2.2635,-2.272,-2.2682,-2.2693,-2.2714,-2.2736,-2.2739,-2.2754,-2.2779,-2.2783,-2.2759,-2.2805,-2.2814,-2.286,-2.2882,-2.2844,-2.2847,-2.2982,-2.2985,-2.2987,-2.3002,0,0,0,0,0,0,-2.2622,-2.2634,-2.2653,-2.2683,-2.2695,-2.2758,-2.2738,-2.2741,-2.276,-2.2759,-2.2791,-2.2795,-2.2804,-2.2854,-2.2863,-2.2886,-2.285,-2.298,-2.2983,-2.2986,-2.3,-2.3005,-2.3009,0,0,0,0,0,-2.2618,-2.2656,-2.2654,-2.2664,-2.2718,-2.276,-2.2767,-2.2776,-2.2762,-2.2781,-2.2798,-2.2794,-2.2878,-2.2859,-2.2869,-2.2894,-2.2979,-2.2982,-2.2986,-2.2998,-2.3004,-2.3009,0,0,0,0,0,0,-2.263,-2.266,-2.2658,-2.2706,-2.273,-2.2759,-2.2783,-2.2782,-2.2811,-2.2808,-2.2819,-2.2827,-2.2873,-2.2888,-2.2866,-2.2945,-2.2927,-2.2933,-2.2932,-2.2939,-2.2943,-2.2938,-2.2853,0,0,0,0,0,-2.2638,-2.2668,-2.2693,-2.2733,-2.2745,-2.2762,-2.278,-2.2785,-2.2811,-2.2821,-2.2841,-2.2867,-2.2899,-2.292,-2.2951,-2.3003,-2.301,-2.3025,-2.303,-2.3033,-2.3038,-2.3066,-2.3073,-2.2999,-2.2999,-2.2999,0,0,-2.2655,-2.2675,-2.2693,-2.2736,-2.2755,-2.2786,-2.2771,-2.2805,-2.2828,-2.2827,-2.287,-2.2886,-2.2916,-2.2965,-2.2987,-2.2979,-2.306,-2.3038,-2.3041,-2.3043,-2.307,-2.3077,-2.3083,-2.3001,-2.3001,-2.3,0,0,-2.2702,-2.272,-2.2755,-2.2774,-2.2803,-2.2814,-2.2823,-2.2851,-2.2861,-2.2905,-2.2905,-2.2934,-2.2989,-2.301,-2.3028,-2.3083,-2.3081,-2.3094,-2.3117,-2.3144,-2.315,-2.3155,-2.3174,-2.3181,-2.3098,-2.3098,-2.3098,0,-2.2719,-2.2765,-2.2774,-2.2807,-2.2826,-2.2826,-2.2861,-2.288,-2.2918,-2.2932,-2.2922,-2.2991,-2.3011,-2.3065,-2.3078,-2.3093,-2.3103,-2.3089,-2.3149,-2.3154,-2.3159,-2.3177,-2.3184,-2.3099,-2.3099,-2.3099,-2.3099,0,-2.2785,-2.2818,-2.2843,-2.2877,-2.29,-2.2934,-2.2949,-2.297,-2.2974,-2.2986,-2.3031,-2.3056,-2.3091,-2.3105,-2.3109,-2.3159,-2.3153,-2.3146,-2.3128,-2.3167,-2.3184,-2.3191,-2.3101,-2.3101,-2.31,-2.31,0,0,-2.284,-2.2879,-2.2888,-2.2903,-2.2935,-2.2961,-2.2996,-2.303,-2.3048,-2.3075,-2.3105,-2.3152,-2.3145,-2.3166,-2.3173,-2.3197,-2.3238,-2.3187,-2.3188,-2.3194,-2.3294,-2.3297,-2.3305,-2.3237,-2.3239,-2.324,-2.3291,0,-2.2889,-2.2949,-2.2958,-2.3012,-2.3042,-2.3042,-2.3073,-2.3096,-2.3109,-2.3137,-2.3153,-2.3185,-2.3175,-2.3187,-2.3211,-2.3228,-2.3258,-2.3224,-2.3265,-2.3266,-2.3256,-2.3314,-2.3319,-2.3365,-2.3298,-2.3299,-2.33,0,-2.2953,-2.298,-2.3036,-2.3064,-2.3077,-2.3104,-2.3135,-2.3162,-2.3189,-2.3197,-2.322,-2.3224,-2.3261,-2.3243,-2.3295,-2.3272,-2.329,-2.3301,-2.3303,-2.3306,-2.3284,-2.3318,-2.3381,-2.3387,-2.3311,-2.331,-2.3309,0,-2.2986,-2.3036,-2.3076,-2.309,-2.3123,-2.3142,-2.3157,-2.3183,-2.3203,-2.3231,-2.3244,-2.3277,-2.3295,-2.3321,-2.3334,-2.3319,-2.3385,-2.3368,-2.3392,-2.3392,-2.3405,-2.3403,-2.347,-2.3419,-2.3419,-2.3418,-2.3418,0,-2.3038,-2.3072,-2.3091,-2.3115,-2.3154,-2.3165,-2.3203,-2.3218,-2.3241,-2.3269,-2.3272,-2.3299,-2.3315,-2.3344,-2.3355,-2.3396,-2.3405,-2.3412,-2.3415,-2.3411,-2.341,-2.3422,-2.3418,-2.342,-2.342,-2.342,-2.3419,0,-2.308,-2.3094,-2.3137,-2.3165,-2.3173,-2.32,-2.3225,-2.3249,-2.3262,-2.3298,-2.3307,-2.3328,-2.3362,-2.3378,-2.3422,-2.3429,-2.3475,-2.3476,-2.3465,-2.3466,-2.3489,-2.3486,-2.3564,-2.3575,-2.3518,-2.3518,-2.3519,0,-2.3112,-2.3138,-2.3168,-2.3186,-2.3202,-2.3232,-2.3251,-2.3264,-2.3284,-2.3317,-2.3338,-2.3372,-2.34,-2.3456,-2.3475,-2.3509,-2.3509,-2.3535,-2.3514,-2.351,-2.3508,-2.3506,-2.3508,-2.3538,-2.3538,-2.3539,-2.3539,0,-2.3166,-2.3172,-2.3199,-2.3229,-2.3253,-2.3277,-2.3302,-2.3317,-2.3333,-2.3357,-2.3391,-2.3413,-2.3457,-2.3491,-2.3525,-2.3542,-2.3543,-2.3545,-2.3553,-2.3549,-2.3541,-2.3544,-2.3474,-2.3543,-2.3543,-2.3542,-2.3542,-2.3542,-2.3203,-2.3226,-2.3251,-2.3281,-2.3301,-2.3323,-2.3347,-2.3363,-2.3392,-2.3427,-2.3433,-2.347,-2.3497,-2.3543,-2.3562,-2.3591,-2.3585,-2.3596,-2.3599,-2.3601,-2.3601,-2.3537,-2.3598,-2.3598,-2.3598,-2.3598,-2.3598,0,-2.3257,-2.3273,-2.3301,-2.3334,-2.3358,-2.3357,-2.3384,-2.3404,-2.3436,-2.3461,-2.3488,-2.3528,-2.3561,-2.3584,-2.3618,-2.3637,-2.3639,-2.3646,-2.3644,-2.3647,-2.3605,-2.3595,-2.3644,-2.3644,-2.3644,-2.3644,-2.3644,-2.3644,-2.3287,-2.3325,-2.3334,-2.3382,-2.3398,-2.3433,-2.3448,-2.347,-2.3489,-2.3533,-2.356,-2.3574,-2.3598,-2.3634,-2.3665,-2.3671,-2.3683,-2.369,-2.3695,-2.3655,-2.365,-2.3646,-2.3636,-2.3693,-2.3693,-2.3735,-2.3735,-2.3735]},{"header":{"parameterUnit":"m.s-1","parameterCategory":1,"la1":30.2991,"la2":30.254,"lo1":-89.0895,"lo2":-89.0444,"dx":0.0017,"dy":0.0017,"nx":28,"ny":28,"refTime":"2023-01-17T09:00:00:Z","depth":0,"parameterNumber":3,"parameterNumberName":"V-component_of_WINDS"},"data":[0,0,0,0,0,0,0,0,0,0,0,0,0,0,0,0,0,0,0,0,0,0,0,0,0,0,0,0,0,0,0,0,0,0,0,0,0,0,0,0,0,0,0,0,0,0,0,0,0,0,0,0,0,0,0,0,0,0,3.0917,3.0917,0,3.0922,3.0922,3.0922,3.0897,3.0896,3.0895,3.0895,3.0901,3.0902,3.0903,0,0,0,0,0,0,0,0,0,0,0,0,0,3.0892,3.0893,3.0917,3.0917,3.0917,3.0922,3.0922,3.0922,3.0897,3.0896,3.0895,3.0894,3.0901,3.0902,3.0903,0,0,0,0,0,0,0,0,0,0,0,0,0,3.0901,3.0893,3.0917,3.0905,3.0904,3.0922,3.0922,3.0922,3.0897,3.0896,3.0895,3.0894,3.09,3.0902,3.0903,3.0932,0,0,3.0907,3.0907,0,0,0,0,0,0,0,0,3.09,3.0901,3.0907,3.0906,3.0905,3.0908,3.0915,3.0925,3.0898,3.09,3.0895,3.0894,3.0904,3.0905,3.0908,3.0932,3.0932,3.0907,3.0907,3.0908,3.0908,0,0,0,0,0,0,0,3.09,3.0901,3.0919,3.0907,3.0906,3.0902,3.0902,3.0917,3.0908,3.09,3.0898,3.0899,3.0903,3.0907,3.0908,3.0933,3.0907,3.0908,3.0908,3.0909,3.0988,3.0989,0,0,0,0,0,0,3.09,3.0901,3.0919,3.0919,3.09,3.0903,3.0903,3.0908,3.0908,3.0907,3.09,3.0898,3.0905,3.0907,3.0908,3.0946,3.0908,3.0909,3.091,3.0986,3.0988,3.0989,0,0,0,0,0,0,3.09,3.0902,3.0918,3.091,3.0911,3.0905,3.091,3.0909,3.0912,3.0908,3.0906,3.0905,3.0905,3.0907,3.0928,3.0946,3.091,3.0911,3.0985,3.0987,3.0989,3.1021,0,0,0,0,0,0,3.0899,3.0902,3.0911,3.091,3.0912,3.0936,3.0911,3.0909,3.0914,3.0912,3.0912,3.0911,3.0904,3.0926,3.0929,3.0947,3.0912,3.0983,3.0986,3.0988,3.1018,3.1023,3.1028,0,0,0,0,0,3.0898,3.0919,3.0911,3.0914,3.0923,3.0937,3.0938,3.0929,3.0916,3.0926,3.0925,3.0911,3.0944,3.0928,3.0931,3.095,3.0982,3.0985,3.0988,3.1016,3.1022,3.1028,0,0,0,0,0,0,3.0921,3.0918,3.091,3.093,3.0934,3.0933,3.0945,3.0936,3.0943,3.0941,3.093,3.093,3.0954,3.0954,3.0937,3.0982,3.0961,3.0965,3.0981,3.0987,3.0992,3.0992,3.0913,0,0,0,0,0,3.0928,3.0939,3.0936,3.0955,3.0957,3.0951,3.0957,3.095,3.0954,3.0955,3.0955,3.096,3.0972,3.0979,3.0989,3.1018,3.102,3.1033,3.1039,3.1043,3.1046,3.1067,3.1074,3.0999,3.0999,3.0999,0,0,3.0943,3.0943,3.095,3.0959,3.0961,3.0975,3.0952,3.0966,3.0977,3.0957,3.0978,3.0979,3.0984,3.101,3.1022,3.1011,3.1068,3.1047,3.105,3.1051,3.1071,3.1078,3.1084,3.1001,3.1001,3.1001,0,0,3.0978,3.0978,3.0995,3.1,3.1004,3.1001,3.1006,3.1007,3.1007,3.1028,3.1015,3.1029,3.1048,3.1054,3.1059,3.1104,3.1094,3.1108,3.1135,3.1155,3.1161,3.1167,3.1186,3.1193,3.1112,3.1112,3.1112,0,3.0996,3.1015,3.1006,3.1022,3.1029,3.1014,3.1034,3.1038,3.1046,3.1052,3.104,3.1068,3.107,3.11,3.1112,3.1115,3.1123,3.1107,3.1161,3.1166,3.1171,3.119,3.1197,3.1114,3.1113,3.1113,3.1113,0,3.1039,3.1053,3.1067,3.1077,3.1085,3.1103,3.11,3.1109,3.1104,3.1103,3.1128,3.1131,3.1144,3.1151,3.1144,3.1182,3.1176,3.1163,3.1141,3.118,3.1198,3.1205,3.1116,3.1116,3.1115,3.1115,0,0,3.1084,3.1093,3.1099,3.1106,3.1113,3.1124,3.1144,3.1158,3.1169,3.1176,3.1195,3.1215,3.1205,3.1211,3.1206,3.1223,3.1264,3.1209,3.1209,3.1222,3.1311,3.1323,3.1331,3.1258,3.1259,3.126,3.1312,0,3.112,3.1154,3.115,3.1182,3.1198,3.1187,3.1206,3.1214,3.1215,3.123,3.1232,3.1248,3.1231,3.1236,3.1253,3.1256,3.1283,3.1252,3.1277,3.1278,3.1278,3.1339,3.1349,3.1398,3.1319,3.132,3.132,0,3.1166,3.1178,3.1213,3.1224,3.123,3.1246,3.1262,3.1275,3.1286,3.1287,3.1298,3.1291,3.1315,3.1293,3.1328,3.1307,3.1318,3.1322,3.1324,3.1326,3.1302,3.1346,3.1413,3.1421,3.133,3.133,3.1329,0,3.1199,3.1224,3.125,3.1255,3.1267,3.128,3.1286,3.1296,3.1307,3.1321,3.1329,3.1345,3.1355,3.1369,3.1369,3.1353,3.1406,3.1383,3.1409,3.141,3.1421,3.142,3.1493,3.1425,3.1425,3.1425,3.1425,0,3.124,3.1263,3.1265,3.1281,3.1308,3.1306,3.1333,3.1337,3.1348,3.1367,3.1358,3.1377,3.1375,3.1394,3.1394,3.1425,3.1429,3.1432,3.1432,3.1434,3.1434,3.1441,3.1438,3.1427,3.1426,3.1426,3.1426,0,3.1281,3.1283,3.1311,3.1322,3.1326,3.1346,3.1356,3.1373,3.1377,3.1401,3.1407,3.1412,3.1435,3.1437,3.1462,3.1463,3.1502,3.1497,3.1499,3.1498,3.1526,3.1524,3.1606,3.1619,3.1541,3.1542,3.1543,0,3.1307,3.1325,3.134,3.1353,3.136,3.138,3.1392,3.1392,3.1406,3.1424,3.144,3.1463,3.148,3.1519,3.1526,3.1547,3.1544,3.1572,3.1547,3.155,3.1548,3.1548,3.1552,3.1577,3.1577,3.1578,3.1579,0,3.1355,3.1358,3.1375,3.1396,3.1411,3.1427,3.1442,3.1453,3.1455,3.1472,3.1496,3.1511,3.154,3.1564,3.1587,3.1595,3.1589,3.1587,3.1595,3.1597,3.1598,3.1601,3.1514,3.1585,3.1584,3.1584,3.1583,3.1583,3.1391,3.1409,3.1424,3.1446,3.1458,3.1474,3.1492,3.15,3.1521,3.1545,3.1544,3.1573,3.159,3.1619,3.163,3.1654,3.1645,3.1655,3.1658,3.1661,3.1665,3.1594,3.1657,3.1657,3.1657,3.1657,3.1657,0,3.1441,3.1452,3.1473,3.1496,3.1515,3.1509,3.1527,3.1544,3.1569,3.1585,3.1605,3.1637,3.1662,3.1673,3.1699,3.1716,3.1715,3.1723,3.1722,3.1725,3.167,3.1662,3.1724,3.1724,3.1724,3.1724,3.1724,3.1724,3.1469,3.1501,3.1506,3.1546,3.1557,3.1585,3.1597,3.1613,3.1627,3.1663,3.1684,3.1692,3.1708,3.1736,3.1761,3.1764,3.1775,3.1785,3.1787,3.1735,3.1728,3.1722,3.1715,3.1787,3.1787,3.1841,3.1841,3.1842]}]]